Regional Weather Roundup
Issued by NWS

Home | Current Version | Previous Version | Text Only | Print | Product List | Glossary Off
Versions: 1 2 3 4 5 6 7 8 9 10 11 12 13 14 15 16 17 18 19 20 21 22 23 24 25 26 27 28 29 30 31 32 33 34 35 36 37 38 39 40 41 42 43 44 45 46 47 48 49 50

000
ASUS43 KOAX 152110
RWRNE

WEATHER ROUNDUP FOR NEBRASKA
NATIONAL WEATHER SERVICE OMAHA NE
400 PM CDT MON SEP 15 2014

NOTES: SATELLITE DATA IS BEING USED TO AUGMENT CLOUD COVER ABOVE
       12000 FEET.
       "FAIR" INDICATES FEW OR NO CLOUDS BELOW 12,000 FEET WITH NO
       SIGNIFICANT WEATHER AND/OR OBSTRUCTIONS TO VISIBILITY.

  * THESE STATIONS DO NOT REPORT WEATHER SUCH AS RAIN...SNOW OR FOG.

NEZ001>004-019>022-054>056-152200-
NEBRASKA PANHANDLE

CITY           SKY/WX    TMP DP  RH WIND       PRES   REMARKS
SCOTTSBLUFF    SUNNY     70  46  42 SE17      30.23F
ALLIANCE       SUNNY     65  42  43 S12       30.24F
CHADRON        SUNNY     69  43  38 S10G23    30.19F
KIMBALL        SUNNY     67  43  42 S16G23    30.26F
SIDNEY         SUNNY     66  43  43 S12       30.29F
$$

NEZ057>060-069>072-079>082-152200-
SOUTHWEST NEBRASKA

CITY           SKY/WX    TMP DP  RH WIND       PRES   REMARKS
NORTH PLATTE   SUNNY     67  39  35 VRB3      30.27F
IMPERIAL       SUNNY     67  41  38 E7        30.28F
LEXINGTON      SUNNY     65  44  46 E7        30.27S
MCCOOK         SUNNY     68  43  40 E8        30.27F
OGALLALA       SUNNY     67  43  42 E6        30.27F
$$

NEZ005>010-023>029-035>040-094-152200-
NORTH CENTRAL NEBRASKA

CITY           SKY/WX    TMP DP  RH WIND       PRES   REMARKS
VALENTINE      SUNNY     64  34  32 SW5       30.26F
AINSWORTH      SUNNY     61  37  40 E6        30.27F
BROKEN BOW     SUNNY     67  40  37 NE7       30.26F
O`NEILL        SUNNY     62  41  46 CALM      30.27F
ORD            SUNNY     65  39  38 NE9       30.25F
THEDFORD       SUNNY     65  39  38 CALM      30.27F
$$

NEZ041-046>049-061>064-073>077-083>087-152200-
SOUTH CENTRAL NEBRASKA

CITY           SKY/WX    TMP DP  RH WIND       PRES   REMARKS
GRAND ISLAND   FAIR      66  43  43 NE9       30.26F
AURORA         FAIR      65  41  41 N10       30.25F
HASTINGS       FAIR      65  42  43 NE10      30.25F
HEBRON         FAIR      69  44  39 NE13G20   30.22R
HOLDREGE       FAIR      65  42  43 NE7       30.25F
KEARNEY *      FAIR      64  43  45 NE12      30.27S
YORK           FAIR      64  46  52 N15G22    30.25S
$$

NEZ011>018-030>034-042>045-152200-
NORTHEAST NEBRASKA

CITY           SKY/WX    TMP DP  RH WIND       PRES   REMARKS
NORFOLK        FAIR      64  43  46 N8        30.25F
ALBION         FAIR      62  41  46 N12G17    30.26F
BLAIR          PTSUNNY   63  46  53 N13       30.23F
COLUMBUS *     FAIR      64  43  45 NE8       30.26F
FREMONT        PTSUNNY   62  45  52 NE8       30.25F
TEKAMAH        PTSUNNY   64  44  48 N18G25    30.24F
WAYNE          FAIR      63  42  47 N14       30.25F
$$

NEZ050>053-065>068-078-088>093-152200-
SOUTHEAST NEBRASKA

CITY           SKY/WX    TMP DP  RH WIND       PRES   REMARKS
LINCOLN        FAIR      65  46  50 N16G22    30.24S
OMAHA EPPLEY   FAIR      61  45  55 N14       30.24S
BEATRICE       FAIR      67  48  50 N17       30.21F
FALLS CITY     FAIR      68  52  56 NE15G23   30.19S
NEBRASKA CITY  FAIR      65  43  43 NE18      30.21S
PLATTSMOUTH    PTSUNNY   62  46  54 N7        30.22S
$$

NEZ044-045-051>053-067-152200-
OMAHA AREA

CITY           SKY/WX    TMP DP  RH WIND       PRES   REMARKS
OMAHA EPPLEY   FAIR      61  45  55 N14       30.24S
BLAIR          PTSUNNY   63  46  53 N13       30.23F
FREMONT        PTSUNNY   62  45  52 NE8       30.25F
MILLARD        PTSUNNY   62  46  56 N8        30.23S
OFFUTT AFB     FAIR      64  49  59 VRB7      30.23S
PLATTSMOUTH    PTSUNNY   62  46  54 N7        30.22S
WAHOO          MOCLDY    62  43  49 N7G17     30.24S
$$



USA.gov is the U.S. government's official web portal to all federal, state and local government web resources and services.